Vorticity
9 11 13 6 7 7 15 6 -1 10 5 6 6 4 7 2 2 -1 1 -6 1 5 6 11 6 5 5 5 6 5 5 2 4 5 4 4 3 2 4 3 2 3 3 3 2 5 7 8 8
11 12 8 13 4 -6 10 9 1 -6 1 5 5 -0 3 1 2 5 8 6 6 5 6 7 7 8 8 7 7 7 7 7 6 4 3 3 4 4 3 2 3 2 3 4 3 3 5 5 6
10 8 9 9 -3 13 13 8 -1 8 6 4 9 4 1 -2 7 7 6 5 7 3 5 10 6 6 7 8 8 8 8 7 8 8 7 6 3 2 3 3 2 2 4 4 3 3 5 4 5
9 9 8 6 -4 2 16 -1 4 4 5 5 5 6 1 6 6 5 7 4 9 7 -0 6 10 9 6 6 5 5 5 6 5 6 6 6 6 6 5 2 4 7 3 2 4 3 4 5 4
10 12 -1 5 7 2 -4 -1 8 7 2 4 5 -1 6 8 6 3 8 4 3 7 6 8 11 8 6 6 6 6 6 6 6 6 6 6 6 6 6 5 3 2 3 1 2 5 4 5 2
8 4 7 6 12 2 2 10 9 5 2 3 4 10 5 6 6 11 -2 8 7 9 9 6 6 6 6 8 9 8 7 6 7 8 8 7 7 6 7 6 6 6 4 5 4 1 3 4 6
5 -3 -1 -0 4 5 3 8 6 3 2 0 13 5 3 10 -4 8 4 11 6 8 8 7 7 9 11 8 7 6 7 7 6 6 9 12 14 15 16 13 11 7 10 3 5 5 4 4 5
4 6 1 11 10 13 0 5 9 8 -0 6 4 6 -4 -0 6 8 10 8 8 8 8 9 8 7 6 7 7 4 7 7 8 8 9 8 7 10 10 14 19 19 16 17 3 5 4 4 10
5 5 8 7 11 -0 7 12 14 9 5 4 5 3 7 4 8 10 8 8 7 8 8 8 8 6 6 4 6 7 8 8 8 9 10 8 12 13 23 23 20 22 27 27 23 -8 12 -1 6
4 8 8 2 0 4 16 7 4 5 3 4 8 6 8 9 9 7 7 6 7 7 8 7 5 5 5 5 6 8 9 8 9 10 11 11 13 15 7 8 13 13 12 16 30 31 9 6 -3
5 3 5 1 5 11 4 4 6 4 7 7 6 8 13 7 9 7 5 7 7 7 6 6 6 5 5 6 8 9 8 9 8 9 11 13 16 6 5 11 15 12 12 8 7 22 31 44 2
5 7 4 4 13 8 4 5 5 8 2 9 7 9 7 5 7 6 7 7 6 6 6 6 4 4 6 7 7 8 8 8 10 12 9 11 3 7 12 20 7 9 3 -0 20 22 23 4 40
5 5 8 12 6 5 3 6 7 10 5 12 8 7 2 3 8 8 6 7 7 6 6 5 4 6 6 7 8 7 7 8 9 8 10 11 7 5 7 3 -3 21 7 15 32 32 32 31 49
10 11 8 6 3 5 7 9 9 4 8 9 5 6 -4 7 8 7 9 9 7 6 5 4 4 5 7 8 8 7 7 7 8 9 11 6 11 6 6 2 14 19 5 -12 10 32 5 37 27
7 5 5 6 5 8 9 12 18 13 12 2 8 -0 4 2 12 10 10 7 6 5 4 3 5 7 9 10 9 8 7 6 6 9 13 10 8 5 4 4 17 18 1 5 1 12 2 30 18
8 8 8 9 10 8 5 5 4 11 1 7 1 4 4 6 18 12 7 6 5 4 3 5 7 9 9 10 10 9 8 6 6 7 13 11 11 5 5 4 1 14 7 5 -2 6 15 13 14
12 -4 15 9 7 9 10 -10 5 1 1 3 5 4 5 16 13 9 5 5 4 3 5 7 8 8 10 10 9 8 7 7 5 5 8 11 7 3 3 3 3 0 8 7 4 6 11 8 11
20 9 10 13 2 6 5 3 6 5 4 5 6 8 19 18 10 6 6 5 3 4 6 8 8 8 8 7 8 8 9 8 7 7 6 4 7 8 8 5 3 3 4 2 5 8 6 9 9
2 -3 6 2 9 6 15 10 11 -2 7 9 18 16 20 13 8 5 5 3 4 5 7 7 7 7 8 7 7 8 7 7 7 7 8 6 6 5 5 6 7 6 7 7 5 5 7 6 7
13 10 12 3 8 5 7 9 15 1 12 15 14 13 15 9 5 5 3 3 5 5 7 7 9 9 9 9 8 6 6 6 7 9 8 7 8 9 7 7 8 8 7 7 10 8 10 7 7
7 6 -0 6 2 13 13 38 23 22 19 14 7 15 11 7 5 4 3 6 5 5 7 8 7 9 9 7 5 3 3 4 5 5 7 10 10 9 8 9 9 7 8 7 5 7 10 8 6
3 10 11 2 12 1 -9 3 1 8 11 16 10 9 6 5 5 3 5 7 3 5 6 2 0 -2 1 6 8 7 8 8 10 11 9 7 7 10 13 14 13 14 13 14 9 7 6 9 8
5 7 4 4 11 20 37 7 39 7 5 15 11 7 6 4 4 4 7 5 1 5 5 3 2 -2 -5 4 13 11 10 12 14 12 11 11 10 7 6 8 10 11 11 10 14 15 14 9 10
1 7 12 21 19 16 51 -4 30 3 18 10 9 13 7 7 6 6 7 6 4 3 4 4 2 2 -2 -2 7 8 10 15 13 12 11 10 9 10 8 5 4 4 3 4 4 5 10 13 11
9 12 15 9 10 9 4 20 -14 -5 -2 8 3 5 14 8 7 7 7 5 4 0 -1 1 2 1 0 -2 5 10 7 11 12 9 8 6 4 2 2 3 1 -0 -1 -0 1 3 1 1 3
1 7 2 10 9 -0 -8 20 6 13 4 17 8 10 12 8 5 7 7 5 6 3 2 -0 1 3 -2 -3 10 14 15 10 13 8 5 4 3 3 3 0 1 4 4 4 4 4 5 7 4
16 9 13 -0 19 14 7 17 2 10 9 11 9 11 8 8 8 7 4 5 6 3 1 2 2 -0 -4 17 17 11 11 7 9 8 6 5 5 5 5 6 5 4 3 6 7 6 5 4 4
7 10 10 12 8 11 26 -1 -1 -1 1 6 14 11 11 8 1 8 7 4 1 -2 -6 -3 2 15 31 12 8 11 9 12 10 7 8 7 5 5 7 8 9 10 10 7 6 6 6 6 6
19 6 6 0 -7 8 4 16 8 4 5 3 5 10 -1 1 8 6 3 -1 0 7 13 24 30 -3 9 12 9 9 9 9 9 8 8 8 6 5 3 2 4 5 5 6 6 6 6 6 5
4 -2 11 -1 25 3 -3 13 -16 13 15 5 34 5 12 4 -2 -10 -9 7 25 23 18 -10 8 17 3 8 7 8 8 7 6 8 12 8 3 2 5 8 8 3 7 11 9 13 19 8 7
Height
3160 3161 3163 3164 3170 3166 3166 3167 3166 3168 3167 3168 3169 3169 3171 3171 3172 3175 3173 3173 3173 3172 3168 3171 3170 3168 3168 3168 3167 3167 3167 3167 3167 3167 3167 3167 3166 3166 3165 3165 3165 3164 3164 3164 3163 3163 3162 3162 3161
3159 3160 3162 3163 3167 3166 3166 3165 3166 3166 3167 3167 3168 3169 3170 3170 3170 3170 3172 3171 3171 3169 3166 3168 3167 3167 3166 3165 3165 3165 3164 3164 3165 3165 3165 3165 3164 3164 3164 3163 3163 3162 3162 3161 3161 3161 3160 3160 3160
3158 3159 3162 3163 3165 3166 3166 3166 3164 3166 3166 3166 3167 3168 3168 3167 3169 3169 3169 3169 3169 3167 3165 3166 3166 3165 3165 3164 3164 3163 3163 3162 3162 3161 3161 3161 3161 3161 3161 3160 3160 3159 3159 3159 3159 3159 3158 3158 3158
3157 3159 3163 3163 3165 3165 3164 3164 3165 3165 3166 3166 3166 3165 3167 3167 3167 3167 3168 3167 3167 3165 3162 3164 3163 3163 3162 3162 3162 3161 3160 3159 3159 3158 3157 3156 3156 3156 3156 3156 3155 3155 3155 3155 3155 3155 3156 3155 3155
3156 3159 3161 3162 3163 3163 3163 3164 3165 3164 3164 3164 3165 3163 3164 3166 3165 3166 3166 3165 3164 3163 3161 3160 3161 3160 3160 3159 3158 3158 3157 3157 3155 3154 3153 3152 3152 3151 3151 3150 3150 3150 3150 3151 3151 3151 3151 3152 3152
3156 3158 3160 3162 3162 3162 3162 3163 3163 3164 3163 3162 3163 3164 3162 3163 3165 3164 3163 3162 3162 3160 3159 3158 3158 3157 3157 3156 3156 3155 3154 3153 3152 3150 3149 3148 3147 3146 3145 3144 3143 3143 3145 3146 3146 3146 3146 3146 3147
3154 3156 3159 3160 3161 3161 3161 3161 3162 3162 3162 3160 3162 3162 3162 3161 3162 3162 3161 3161 3160 3159 3158 3157 3156 3155 3155 3154 3153 3152 3151 3150 3148 3146 3144 3143 3142 3140 3138 3137 3136 3135 3136 3137 3138 3140 3141 3142 3142
3154 3157 3158 3160 3160 3160 3159 3159 3160 3161 3159 3160 3161 3159 3159 3161 3159 3159 3159 3159 3158 3157 3156 3155 3153 3152 3151 3151 3150 3148 3147 3145 3144 3141 3139 3138 3136 3133 3132 3130 3128 3127 3127 3127 3129 3131 3132 3135 3137
3153 3156 3157 3159 3158 3157 3158 3157 3158 3159 3159 3159 3159 3157 3158 3157 3156 3156 3156 3156 3155 3155 3153 3152 3151 3150 3149 3146 3146 3144 3142 3140 3138 3136 3134 3133 3130 3127 3126 3123 3120 3119 3118 3118 3119 3122 3123 3127 3128
3152 3154 3155 3155 3155 3155 3156 3155 3157 3158 3157 3157 3156 3155 3156 3155 3154 3154 3153 3153 3152 3151 3150 3150 3148 3147 3146 3144 3142 3140 3138 3136 3133 3131 3129 3126 3126 3121 3119 3118 3116 3114 3113 3111 3110 3112 3111 3117 3118
3150 3151 3152 3153 3153 3153 3153 3153 3154 3154 3154 3153 3153 3153 3154 3153 3152 3151 3151 3150 3149 3148 3147 3146 3145 3144 3143 3141 3138 3136 3133 3130 3129 3127 3125 3122 3119 3118 3117 3115 3112 3110 3108 3105 3103 3102 3103 3104 3107
3148 3148 3149 3150 3151 3151 3151 3151 3152 3152 3151 3151 3151 3151 3151 3151 3150 3149 3148 3147 3146 3145 3145 3144 3143 3142 3139 3137 3135 3132 3130 3128 3126 3123 3121 3120 3118 3115 3111 3112 3110 3106 3105 3102 3096 3095 3094 3096 3097
3145 3146 3147 3148 3149 3149 3149 3149 3149 3149 3149 3148 3148 3148 3148 3148 3147 3146 3145 3144 3143 3143 3143 3141 3139 3138 3136 3134 3131 3129 3127 3125 3123 3121 3119 3118 3115 3113 3110 3106 3106 3103 3101 3098 3090 3087 3087 3087 3086
3143 3144 3145 3146 3146 3147 3147 3146 3145 3147 3146 3146 3146 3146 3145 3144 3144 3144 3143 3142 3142 3141 3140 3138 3137 3135 3133 3131 3129 3127 3125 3122 3120 3118 3117 3116 3113 3112 3109 3107 3103 3101 3099 3096 3092 3088 3083 3081 3085
3141 3143 3143 3144 3144 3144 3143 3143 3143 3144 3144 3143 3144 3143 3143 3141 3140 3140 3141 3141 3140 3139 3137 3136 3135 3133 3131 3129 3127 3126 3124 3121 3119 3117 3115 3114 3112 3110 3108 3106 3102 3101 3099 3097 3093 3089 3085 3079 3080
3140 3141 3141 3141 3140 3141 3142 3139 3139 3141 3142 3142 3141 3140 3139 3139 3138 3138 3138 3138 3137 3136 3135 3134 3133 3131 3129 3127 3126 3124 3121 3119 3117 3115 3113 3111 3109 3108 3106 3105 3102 3099 3098 3097 3093 3091 3086 3080 3077
3138 3139 3139 3138 3137 3138 3139 3137 3137 3139 3138 3138 3137 3134 3135 3135 3135 3135 3136 3135 3134 3134 3133 3132 3130 3128 3127 3125 3123 3121 3119 3117 3115 3113 3111 3109 3107 3106 3104 3102 3101 3098 3095 3094 3093 3089 3088 3084 3084
3136 3137 3137 3136 3136 3136 3136 3136 3135 3134 3134 3135 3134 3131 3131 3132 3132 3133 3134 3133 3133 3132 3131 3129 3127 3126 3124 3123 3121 3118 3117 3115 3112 3111 3109 3107 3106 3104 3102 3100 3098 3097 3095 3091 3090 3088 3087 3084 3083
3134 3135 3135 3134 3134 3134 3133 3132 3133 3131 3130 3130 3128 3127 3128 3130 3131 3131 3131 3131 3130 3130 3128 3127 3125 3123 3122 3120 3118 3116 3114 3112 3110 3108 3106 3104 3103 3101 3099 3097 3095 3094 3094 3091 3087 3087 3086 3083 3081
3132 3133 3134 3132 3132 3132 3130 3129 3129 3126 3125 3125 3123 3124 3126 3127 3128 3129 3128 3128 3128 3127 3125 3124 3122 3121 3119 3117 3116 3114 3111 3109 3107 3105 3102 3100 3099 3097 3096 3094 3092 3090 3089 3088 3087 3084 3081 3080 3080
3129 3130 3130 3131 3130 3128 3126 3123 3122 3122 3121 3121 3120 3122 3123 3124 3125 3125 3125 3125 3125 3124 3122 3121 3120 3119 3117 3115 3114 3112 3109 3107 3105 3102 3100 3097 3094 3093 3092 3090 3089 3087 3085 3084 3082 3082 3081 3079 3079
3128 3128 3129 3129 3128 3127 3126 3124 3119 3120 3118 3118 3118 3119 3120 3122 3122 3122 3123 3123 3122 3121 3120 3119 3118 3116 3114 3113 3111 3108 3105 3103 3100 3098 3095 3093 3091 3089 3087 3087 3085 3083 3082 3080 3079 3077 3075 3075 3075
3127 3127 3127 3126 3125 3123 3123 3124 3116 3117 3116 3116 3116 3116 3118 3119 3120 3120 3120 3119 3119 3119 3118 3117 3115 3113 3111 3109 3106 3103 3100 3097 3095 3093 3091 3089 3087 3084 3083 3082 3081 3080 3078 3076 3075 3075 3073 3071 3070
3125 3125 3125 3123 3122 3123 3120 3122 3117 3115 3114 3114 3113 3114 3116 3117 3117 3118 3118 3118 3116 3115 3113 3112 3110 3108 3105 3102 3100 3098 3095 3092 3090 3088 3087 3085 3084 3082 3080 3077 3076 3075 3075 3074 3072 3070 3068 3067 3066
3123 3124 3124 3125 3124 3123 3120 3120 3115 3114 3114 3112 3111 3112 3113 3114 3114 3114 3112 3112 3111 3110 3109 3107 3106 3103 3100 3097 3094 3091 3089 3087 3085 3083 3082 3080 3079 3077 3076 3074 3072 3070 3068 3067 3067 3065 3063 3062 3061
3121 3123 3123 3127 3124 3120 3118 3113 3110 3110 3111 3110 3109 3109 3110 3109 3110 3110 3110 3109 3107 3106 3103 3101 3099 3097 3093 3090 3087 3084 3082 3081 3079 3077 3075 3074 3073 3071 3070 3068 3066 3064 3061 3060 3058 3058 3057 3055 3054
3119 3120 3121 3121 3120 3118 3112 3109 3108 3108 3108 3108 3107 3106 3106 3107 3106 3105 3105 3104 3102 3100 3099 3096 3093 3089 3085 3083 3079 3077 3075 3073 3072 3070 3068 3066 3065 3063 3061 3059 3058 3057 3054 3052 3050 3049 3048 3047 3046
3115 3118 3118 3119 3122 3117 3106 3105 3103 3104 3105 3103 3103 3101 3102 3103 3102 3101 3100 3098 3096 3094 3092 3088 3085 3082 3078 3075 3072 3070 3068 3066 3064 3062 3059 3057 3056 3054 3052 3051 3049 3047 3045 3043 3041 3039 3038 3036 3036
3111 3112 3113 3115 3115 3112 3111 3104 3102 3102 3102 3101 3099 3097 3099 3100 3098 3095 3094 3092 3088 3086 3084 3079 3076 3073 3070 3068 3065 3063 3061 3059 3056 3054 3051 3048 3046 3044 3043 3041 3039 3037 3035 3032 3030 3028 3026 3024 3023
3108 3108 3109 3110 3110 3109 3107 3102 3102 3101 3101 3098 3098 3096 3093 3095 3091 3090 3089 3085 3081 3075 3072 3071 3069 3065 3063 3061 3058 3056 3053 3050 3047 3045 3042 3040 3037 3035 3032 3030 3028 3026 3025 3022 3019 3017 3014 3012 3010